KF6ILA Weather Reports


Display with metric or nautical units.
time (UTC)temp
F
wind
direction
speed
MPH
gust
MPH
rain 1hr
in
rain 24hr
in
rain mn
in
humidity
%
barometer
mb
20221204224459 53 267 6.0 20.0 0.00 0.00 0.00 65 1016.9
20221204224002 53 257 14.0 20.0 0.00 0.00 0.00 64 1017.0
20221204223505 54 268 7.0 16.0 0.00 0.00 0.00 63 1017.2
20221204223008 54 246 10.0 16.0 0.00 0.00 0.00 61 1017.1
20221204222511 54 263 10.0 16.0 0.00 0.00 0.00 61 1017.1
20221204222014 55 261 9.0 15.0 0.00 0.00 0.00 59 1017.1
20221204221517 55 259 6.0 17.0 0.00 0.00 0.00 60 1017.1
20221204221020 55 286 9.0 19.0 0.00 0.00 0.00 59 1017.0
20221204220523 55 288 11.0 19.0 0.00 0.00 0.00 59 1017.1
20221204220026 55 281 11.0 18.0 0.00 0.00 0.00 59 1017.1
20221204215529 56 255 9.0 18.0 0.00 0.00 0.00 58 1017.2
20221204215032 56 285 13.0 18.0 0.00 0.00 0.00 57 1017.2
20221204214535 57 285 11.0 17.0 0.00 0.00 0.00 58 1017.2
20221204214038 57 283 10.0 17.0 0.00 0.00 0.00 57 1017.1
20221204213541 56 296 8.0 19.0 0.00 0.00 0.00 60 1017.2
20221204213044 56 302 7.0 19.0 0.00 0.00 0.00 60 1017.1
20221204212547 56 287 12.0 17.0 0.00 0.00 0.00 59 1017.1
20221204211553 57 290 10.0 18.0 0.00 0.00 0.00 57 1017.1
20221204211056 57 279 7.0 17.0 0.00 0.00 0.00 57 1017.1
20221204210102 57 271 11.0 17.0 0.00 0.00 0.00 57 1017.2
20221204205605 57 265 8.0 18.0 0.00 0.00 0.00 57 1017.2
20221204205108 57 291 12.0 18.0 0.00 0.00 0.00 58 1017.2
20221204204611 57 277 9.0 16.0 0.00 0.00 0.00 56 1017.2
20221204204114 57 281 8.0 17.0 0.00 0.00 0.00 56 1017.1
20221204203617 57 247 11.0 17.0 0.00 0.00 0.00 56 1017.2
20221204203120 57 253 11.0 17.0 0.00 0.00 0.00 57 1017.2
20221204202623 57 291 7.0 18.0 0.00 0.00 0.00 58 1017.2
20221204202126 57 290 9.0 18.0 0.00 0.00 0.00 57 1017.3
20221204201629 57 276 6.0 16.0 0.00 0.00 0.00 57 1017.4
20221204201132 57 293 8.0 16.0 0.00 0.00 0.00 57 1017.4
20221204200635 57 290 12.0 16.0 0.00 0.00 0.00 55 1017.4
20221204200138 57 297 8.0 16.0 0.00 0.00 0.00 56 1017.4
20221204195641 57 287 5.0 15.0 0.00 0.00 0.00 57 1017.4
20221204195144 57 299 7.0 15.0 0.00 0.00 0.00 57 1016.7
20221204194647 57 276 6.0 14.0 0.00 0.00 0.00 57 1016.8
20221204194150 57 295 9.0 16.0 0.00 0.00 0.00 58 1016.7
20221204193653 57 276 7.0 16.0 0.00 0.00 0.00 58 1017.1
20221204193156 57 270 8.0 15.0 0.00 0.00 0.00 57 1017.1
20221204192659 57 294 7.0 15.0 0.00 0.00 0.00 57 1017.3
20221204192202 57 296 12.0 15.0 0.00 0.00 0.00 56 1017.3
20221204191705 58 271 7.0 14.0 0.00 0.00 0.00 56 1017.4
20221204190711 57 233 6.0 16.0 0.00 0.00 0.00 59 1017.6
20221204190213 56 226 10.0 17.0 0.00 0.00 0.00 59 1017.7
20221204185716 56 225 10.0 17.0 0.00 0.00 0.00 58 1017.7
20221204185219 56 232 10.0 17.0 0.00 0.00 0.00 59 1017.8
20221204184725 56 251 10.0 17.0 0.00 0.00 0.00 60 1018.0
20221204184225 56 224 11.0 17.0 0.00 0.00 0.00 59 1018.0
20221204183728 55 278 9.0 19.0 0.00 0.00 0.00 63 1018.0
20221204183231 55 261 9.0 19.0 0.00 0.00 0.00 63 1018.0
20221204182237 55 281 12.0 18.0 0.00 0.00 0.00 62 1018.2
20221204181740 55 273 11.0 18.0 0.00 0.00 0.00 65 1018.3
20221204181243 55 281 11.0 18.0 0.00 0.00 0.00 65 1018.3
20221204180747 55 277 11.0 16.0 0.00 0.00 0.00 65 1018.4
20221204180250 55 286 11.0 15.0 0.00 0.00 0.00 63 1018.3
20221204175753 55 288 10.0 15.0 0.00 0.00 0.00 64 1018.4
20221204175256 55 271 9.0 16.0 0.00 0.00 0.00 63 1018.3
20221204174759 55 255 9.0 16.0 0.00 0.00 0.00 61 1018.4
20221204174302 55 256 9.0 16.0 0.00 0.00 0.00 61 1018.3
20221204173805 54 255 11.0 17.0 0.00 0.00 0.00 60 1018.4
20221204173308 54 271 12.0 18.0 0.00 0.00 0.00 60 1018.3
20221204172811 54 263 14.0 18.0 0.00 0.00 0.00 59 1018.3
20221204172314 55 258 10.0 15.0 0.00 0.00 0.00 61 1018.4
20221204171817 54 248 7.0 13.0 0.00 0.00 0.00 64 1018.4
20221204170823 53 258 6.0 15.0 0.00 0.00 0.00 69 1018.3
20221204170326 52 257 10.0 16.0 0.00 0.00 0.00 70 1018.3
20221204165829 52 260 11.0 16.0 0.00 0.00 0.00 73 1018.3
20221204165332 52 243 11.0 17.0 0.00 0.00 0.00 76 1018.3
20221204164835 51 252 11.0 17.0 0.00 0.00 0.00 77 1018.2
20221204163841 50 268 12.0 17.0 0.00 0.00 0.00 79 1018.1
20221204163344 50 265 12.0 16.0 0.00 0.00 0.00 79 1018.3
20221204162847 49 260 10.0 15.0 0.00 0.00 0.00 80 1018.3
20221204162350 49 256 10.0 15.0 0.00 0.00 0.00 81 1018.2
20221204161853 49 258 11.0 16.0 0.00 0.00 0.00 81 1018.1
20221204161356 48 263 11.0 17.0 0.00 0.00 0.00 82 1018.0
20221204160859 48 255 13.0 17.0 0.00 0.00 0.00 82 1017.9
20221204160402 48 258 11.0 15.0 0.00 0.00 0.00 82 1017.9
20221204155905 48 245 9.0 16.0 0.00 0.00 0.00 82 1017.8
20221204155408 48 257 13.0 18.0 0.00 0.00 0.00 82 1017.9
20221204154911 48 248 11.0 18.0 0.00 0.00 0.00 82 1017.8
20221204154414 48 256 14.0 18.0 0.00 0.00 0.00 82 1017.8
20221204153917 47 259 13.0 18.0 0.00 0.00 0.00 83 1017.8
20221204153420 47 254 14.0 18.0 0.00 0.00 0.00 83 1017.7
20221204152928 47 262 12.0 18.0 0.00 0.00 0.00 83 1017.6
20221204152923 47 262 12.0 18.0 0.00 0.00 0.00 83 1017.6
20221204152426 47 263 13.0 18.0 0.00 0.00 0.00 83 1017.6
20221204151929 47 266 13.0 17.0 0.00 0.00 0.00 84 1017.5
20221204151432 47 264 13.0 18.0 0.00 0.00 0.00 84 1017.4
20221204150935 47 263 13.0 18.0 0.00 0.00 0.00 84 1017.4
20221204150438 48 259 13.0 17.0 0.00 0.00 0.00 84 1017.5
20221204145941 48 262 13.0 17.0 0.00 0.00 0.00 85 1017.5
20221204145444 48 258 13.0 17.0 0.00 0.00 0.00 85 1017.5
20221204144947 48 257 12.0 16.0 0.00 0.00 0.00 84 1017.5
20221204144450 48 255 12.0 16.0 0.00 0.00 0.00 84 1017.6
20221204143953 48 259 13.0 16.0 0.00 0.00 0.00 84 1017.5
20221204143456 48 257 12.0 15.0 0.00 0.00 0.00 83 1017.5
20221204142959 47 251 9.0 14.0 0.00 0.00 0.00 83 1017.4
20221204142502 47 247 8.0 13.0 0.00 0.00 0.00 84 1017.3
20221204142005 47 243 8.0 13.0 0.00 0.00 0.00 84 1017.4
20221204141508 47 251 9.0 13.0 0.00 0.00 0.00 85 1017.2
20221204141011 47 249 9.0 12.0 0.00 0.00 0.00 86 1017.1
20221204140514 47 244 7.0 12.0 0.00 0.00 0.00 86 1017.1
20221204140017 47 245 8.0 14.0 0.00 0.00 0.00 86 1017.0
20221204135520 47 250 9.0 14.0 0.00 0.00 0.00 86 1017.0
20221204135023 47 254 10.0 14.0 0.00 0.00 0.00 87 1017.1
20221204134526 47 257 8.0 12.0 0.00 0.00 0.00 86 1017.1
20221204133532 47 251 8.0 12.0 0.00 0.00 0.00 86 1016.8
20221204133036 47 251 8.0 12.0 0.00 0.00 0.00 86 1016.8
20221204132538 47 254 8.0 12.0 0.00 0.00 0.00 86 1016.8
20221204131544 47 264 9.0 12.0 0.00 0.00 0.00 85 1016.9
20221204131047 47 262 9.0 12.0 0.00 0.00 0.00 85 1016.8
20221204130053 47 267 8.0 12.0 0.00 0.00 0.00 85 1016.7
20221204125556 48 259 8.0 12.0 0.00 0.00 0.00 84 1016.8
20221204125059 48 260 7.0 11.0 0.00 0.00 0.00 84 1016.8
20221204124602 48 258 8.0 11.0 0.00 0.00 0.00 84 1016.8
20221204124105 47 261 7.0 11.0 0.00 0.00 0.00 85 1016.7
20221204123609 47 258 8.0 11.0 0.00 0.00 0.00 86 1016.7
20221204122614 46 258 6.0 9.0 0.00 0.00 0.00 87 1016.8
20221204122117 46 247 1.0 8.0 0.00 0.00 0.00 86 1016.9
20221204121620 47 243 5.0 8.0 0.00 0.00 0.00 86 1016.9
20221204121123 47 250 5.0 9.0 0.00 0.00 0.00 86 1017.0
20221204120626 47 254 6.0 9.0 0.00 0.00 0.00 86 1016.9
20221204120129 47 251 6.0 9.0 0.00 0.00 0.00 86 1016.9
20221204115632 47 257 6.0 9.0 0.00 0.00 0.00 86 1017.0
20221204114638 47 262 5.0 8.0 0.00 0.00 0.00 85 1017.0
20221204114141 47 259 5.0 9.0 0.00 0.00 0.00 85 1017.0
20221204113644 47 262 5.0 9.0 0.00 0.00 0.00 85 1017.1
20221204113147 47 261 5.0 9.0 0.00 0.00 0.00 85 1017.2
20221204112650 46 254 5.0 9.0 0.00 0.00 0.00 86 1017.2
20221204112153 46 252 5.0 9.0 0.00 0.00 0.00 86 1017.2
20221204111656 46 244 5.0 8.0 0.00 0.00 0.00 86 1017.4
20221204111159 46 247 5.0 8.0 0.00 0.00 0.00 86 1017.3
20221204110702 46 249 5.0 7.0 0.00 0.00 0.00 85 1017.2
20221204110205 46 241 6.0 8.0 0.00 0.00 0.00 84 1017.2
20221204105708 46 253 4.0 8.0 0.00 0.00 0.00 84 1017.4
20221204105211 46 264 5.0 7.0 0.00 0.00 0.00 84 1017.4
20221204104714 47 249 5.0 7.0 0.00 0.00 0.00 83 1017.5
20221204104217 47 243 6.0 8.0 0.00 0.00 0.00 82 1017.5
20221204103720 47 255 5.0 8.0 0.00 0.00 0.00 82 1017.5
20221204103223 47 255 6.0 8.0 0.00 0.00 0.00 82 1017.6
20221204102726 47 259 6.0 8.0 0.00 0.00 0.00 82 1017.5
20221204102229 47 253 5.0 8.0 0.00 0.00 0.00 81 1017.5
20221204101732 47 252 6.0 8.0 0.00 0.00 0.00 82 1017.6
20221204100738 47 247 5.0 7.0 0.00 0.00 0.00 79 1017.5
20221204100241 47 260 5.0 8.0 0.00 0.00 0.00 79 1017.6
20221204095744 47 261 6.0 8.0 0.00 0.00 0.00 79 1017.6
20221204095448 47 268 5.0 7.0 0.00 0.00 0.00 78 1017.6
20221204095247 47 268 5.0 7.0 0.00 0.00 0.00 78 1017.6
20221204094750 47 264 5.0 7.0 0.00 0.00 0.00 78 1017.6
20221204093755 46 275 5.0 6.0 0.00 0.00 0.00 76 1017.6
20221204093258 47 0 0.0 1.0 0.00 0.00 0.00 74 1017.7
20221204092801 47 0 0.0 5.0 0.00 0.00 0.00 73 1017.8
20221204092305 47 266 1.0 5.0 0.00 0.00 0.00 73 1017.8
20221204091807 46 277 1.0 4.0 0.00 0.00 0.00 73 1017.7
20221204091311 46 0 0.0 3.0 0.00 0.00 0.00 72 1017.7
20221204090813 46 0 0.0 3.0 0.00 0.00 0.00 71 1017.7
20221204090316 46 0 0.0 3.0 0.00 0.00 0.00 71 1017.6
20221204085819 46 0 0.0 3.0 0.00 0.00 0.00 70 1017.5
20221204085322 46 0 0.0 4.0 0.00 0.00 0.00 69 1017.5
20221204084825 47 0 0.0 4.0 0.00 0.00 0.00 69 1017.5
20221204084328 47 0 0.0 2.0 0.00 0.00 0.00 69 1017.6
20221204083831 47 0 0.0 2.0 0.00 0.00 0.00 69 1017.6
20221204083334 47 0 0.0 3.0 0.00 0.00 0.00 69 1017.7
20221204082837 47 0 0.0 3.0 0.00 0.00 0.00 70 1017.8
20221204082340 46 0 0.0 3.0 0.00 0.00 0.00 71 1017.8
20221204081843 46 0 0.0 1.0 0.00 0.00 0.00 71 1017.9
20221204081347 46 0 0.0 5.0 0.00 0.00 0.00 71 1018.0
20221204080849 46 239 1.0 5.0 0.00 0.00 0.00 70 1018.1
20221204080352 46 244 1.0 3.0 0.00 0.00 0.00 70 1018.0
20221204075855 46 0 0.0 1.0 0.00 0.00 0.00 70 1018.0
20221204075358 46 0 0.0 2.0 0.00 0.00 0.00 70 1017.8
20221204074901 46 0 0.0 4.0 0.00 0.00 0.00 71 1017.9
20221204074404 46 246 1.0 4.0 0.00 0.00 0.00 71 1017.9
20221204073907 45 0 0.0 4.0 0.00 0.00 0.00 72 1018.0
20221204073410 45 247 2.0 4.0 0.00 0.00 0.00 73 1018.1
20221204072913 45 259 2.0 4.0 0.00 0.00 0.00 74 1018.1
20221204072416 45 261 1.0 4.0 0.00 0.00 0.00 76 1018.1
20221204071919 44 0 0.0 2.0 0.00 0.00 0.00 78 1018.1
20221204071423 44 0 0.0 2.0 0.00 0.00 0.00 80 1018.0
20221204070925 43 0 0.0 0.0 0.00 0.00 0.00 83 1018.3
20221204070428 43 0 0.0 0.0 0.00 0.00 0.00 84 1018.2
20221204065932 43 0 0.0 0.0 0.00 0.00 0.00 83 1018.1
20221204065434 43 0 0.0 0.0 0.00 0.00 0.00 82 1018.2
20221204064938 43 0 0.0 0.0 0.00 0.00 0.00 83 1018.4
20221204064441 43 0 0.0 0.0 0.00 0.00 0.00 84 1018.4
20221204063944 43 0 0.0 0.0 0.00 0.00 0.00 84 1318.4
20221204063447 43 0 0.0 0.0 0.00 0.00 0.00 85 1018.5
20221204062949 42 0 0.0 0.0 0.00 0.00 0.00 85 1018.5
20221204062452 42 0 0.0 1.0 0.00 0.00 0.00 85 1018.5
20221204061956 43 0 0.0 4.0 0.00 0.00 0.00 84 1018.5
20221204061458 43 0 0.0 5.0 0.00 0.00 0.00 84 1018.5
20221204061001 43 0 0.0 5.0 0.00 0.00 0.00 84 1018.5
20221204060504 43 160 1.0 4.0 0.00 0.00 0.00 85 1018.6
20221204060007 43 161 1.0 4.0 0.00 0.00 0.00 85 1018.5
20221204055510 43 150 1.0 4.0 0.00 0.00 0.00 85 1018.5
20221204055013 42 0 0.0 4.0 0.00 0.00 0.00 85 1018.6
20221204054516 42 149 1.0 2.0 0.00 0.00 0.00 85 1018.7
20221204054019 42 0 0.0 2.0 0.00 0.00 0.00 85 1018.6
20221204053522 42 0 0.0 2.0 0.00 0.00 0.00 85 1018.5
20221204053025 42 175 1.0 2.0 0.00 0.00 0.00 86 1018.6
20221204052528 42 0 0.0 0.0 0.00 0.00 0.00 86 1018.8
20221204052031 42 0 0.0 0.0 0.00 0.00 0.00 86 1018.8
20221204051534 42 0 0.0 0.0 0.00 0.00 0.00 85 1018.8
20221204051037 42 0 0.0 4.0 0.00 0.00 0.00 85 1018.8
20221204050540 42 0 0.0 4.0 0.00 0.00 0.00 84 1018.7
20221204050043 42 150 1.0 5.0 0.00 0.00 0.00 84 1018.6
20221204045547 42 137 1.0 5.0 0.00 0.00 0.00 83 1018.7
20221204045049 43 116 1.0 5.0 0.00 0.00 0.00 82 1018.7
20221204044552 43 0 0.0 1.0 0.00 0.00 0.00 83 1018.7
20221204044055 43 0 0.0 4.0 0.00 0.00 0.00 82 1018.6
20221204043558 43 0 0.0 4.0 0.00 0.00 0.00 82 1018.7
20221204043101 44 99 1.0 4.0 0.00 0.00 0.00 82 1018.6
20221204042605 44 0 0.0 2.0 0.00 0.00 0.00 82 1018.6
20221204042107 44 0 0.0 0.0 0.00 0.00 0.00 82 1018.4
20221204041610 44 0 0.0 0.0 0.00 0.00 0.00 83 1018.4
20221204041113 43 0 0.0 0.0 0.00 0.00 0.00 84 1018.4
20221204040616 43 0 0.0 0.0 0.00 0.00 0.00 84 1018.4
20221204040119 43 0 0.0 0.0 0.00 0.00 0.00 82 1018.5
20221204035623 43 0 0.0 1.0 0.00 0.00 0.00 82 1018.4
20221204035125 44 0 0.0 4.0 0.00 0.00 0.00 82 1018.4
20221204034628 44 98 1.0 4.0 0.00 0.00 0.00 82 1018.4
20221204034132 44 0 0.0 0.0 0.00 0.00 0.00 82 1018.3
20221204033634 44 0 0.0 1.0 0.00 0.00 0.00 82 1018.2
20221204033137 44 0 0.0 1.0 0.00 0.00 0.00 81 1018.3
20221204032640 44 0 0.0 1.0 0.00 0.00 0.00 81 1018.4
20221204032143 44 0 0.0 1.0 0.00 0.00 0.00 82 1018.2
20221204031646 44 0 0.0 1.0 0.00 0.00 0.00 82 1018.3
20221204031149 44 0 0.0 1.0 0.00 0.00 0.00 82 1018.2
20221204030652 44 0 0.0 1.0 0.00 0.00 0.00 82 1018.2
20221204030155 44 0 0.0 0.0 0.00 0.00 0.00 82 1018.3
20221204025658 44 0 0.0 0.0 0.00 0.00 0.00 82 1018.2
20221204025201 44 0 0.0 0.0 0.00 0.00 0.00 82 1018.3
20221204024704 44 0 0.0 1.0 0.00 0.00 0.00 81 1018.3
20221204024207 44 0 0.0 1.0 0.00 0.00 0.00 81 1018.3
20221204023710 44 0 0.0 1.0 0.00 0.00 0.00 81 1018.3
20221204023213 44 0 0.0 0.0 0.00 0.00 0.00 81 1018.2
20221204022716 44 0 0.0 0.0 0.00 0.00 0.00 81 1018.2
20221204022219 44 0 0.0 0.0 0.00 0.00 0.00 82 1018.2
20221204021722 44 0 0.0 0.0 0.00 0.00 0.00 81 1018.2
20221204021225 44 0 0.0 0.0 0.00 0.00 0.00 81 1018.2
20221204020728 44 0 0.0 0.0 0.00 0.00 0.00 81 1018.2
20221204020231 45 0 0.0 0.0 0.00 0.00 0.00 80 1018.2
20221204015734 45 0 0.0 0.0 0.00 0.00 0.00 81 1018.1
20221204015237 45 0 0.0 0.0 0.00 0.00 0.00 81 1018.0
20221204014740 45 0 0.0 0.0 0.00 0.00 0.00 81 1017.9
20221204014243 45 0 0.0 0.0 0.00 0.00 0.00 81 1017.9
20221204013748 45 0 0.0 0.0 0.00 0.00 0.00 80 1017.9
20221204013249 45 0 0.0 2.0 0.00 0.00 0.00 80 1018.1
20221204012752 45 0 0.0 2.0 0.00 0.00 0.00 79 1017.8
20221204012255 46 0 0.0 0.0 0.00 0.00 0.00 79 1017.9
20221204011758 46 0 0.0 0.0 0.00 0.00 0.00 78 1017.9
20221204011301 46 0 0.0 0.0 0.00 0.00 0.00 78 1017.8
20221204010805 46 0 0.0 0.0 0.00 0.00 0.00 78 1018.0
20221204010307 46 0 0.0 0.0 0.00 0.00 0.00 78 1017.9
20221204005810 46 0 0.0 0.0 0.00 0.00 0.00 78 1017.8
20221204005313 47 0 0.0 0.0 0.00 0.00 0.00 78 1017.9
20221204004816 47 0 0.0 0.0 0.00 0.00 0.00 76 1017.8
20221204004319 47 0 0.0 0.0 0.00 0.00 0.00 76 1017.9
20221204003823 47 0 0.0 1.0 0.00 0.00 0.00 1017.7
20221204003325 48 0 0.0 1.0 0.00 0.00 0.00 75 1017.9
20221204002828 48 0 0.0 1.0 0.00 0.00 0.00 74 1017.8
20221204002331 48 0 0.0 1.0 0.00 0.00 0.00 75 1017.7
20221204001834 49 0 0.0 0.0 0.00 0.00 0.00 74 1017.8
20221204001337 49 0 0.0 0.0 0.00 0.00 0.00 74 1017.7
20221204000840 49 0 0.0 0.0 0.00 0.00 0.00 74 1017.6
20221204000345 50 0 0.0 1.0 0.00 0.00 0.00 73 1017.5
20221203235847 50 0 0.0 0.0 0.00 0.00 0.00 73 1017.5
20221203235349 50 0 0.0 2.0 0.00 0.00 0.00 73 1017.4
20221203234355 51 0 0.0 1.0 0.00 0.00 0.00 72 1017.3
20221203233858 51 0 0.0 4.0 0.00 0.00 0.00 71 1017.3
20221203233401 51 0 0.0 4.0 0.00 0.00 0.00 71 1017.1
20221203232904 52 91 1.0 4.0 0.00 0.00 0.00 71 1017.2
20221203232407 52 91 1.0 4.0 0.00 0.00 0.00 71 1017.1
20221203231910 52 0 0.0 5.0 0.00 0.00 0.00 71 1017.1
20221203231413 52 92 1.0 5.0 0.00 0.00 0.00 70 1017.1
20221203230917 52 0 0.0 6.0 0.00 0.00 0.00 70 1017.2
20221203230419 53 92 3.0 6.0 0.00 0.00 0.00 69 1017.0
20221203225922 53 94 3.0 5.0 0.00 0.00 0.00 68 1017.0
20221203225425 53 97 2.0 6.0 0.00 0.00 0.00 68 1017.1